Torna al catalogo

SL-8 R/B

AttivoLEO
NORAD 11870·ROCKET BODY·🇷🇺 Russia

Lanciato Jul 1, 1980 da Plesetsk Cosmodrome

Loading…

Prossimi Passaggi (prossime 24 ore)

TLE

AggiornatoSource: Space-Track

Epoca: Sep 14, 2026, 15:21 UTC

1 11870U 80056B   26257.63993483  .00000081  00000-0  35152-4 0  9992
2 11870  74.0520 122.2430 0016706 311.6317  48.3405 14.38460899396063

Traccia SL-8 R/B in tempo reale con AllMySat

Download on the App Store